FENGYUN 1C DEB

Satellite information

Favourite Embed

Satellite Type and Status

DEBRISIN ORBIT

Key statistics

Satellite FENGYUN 1C DEB at a glance.

Uptime

9555

Days in orbit

Revolutions

≈ 14.0

Per day

Orbit

SSO

Sun Synchronous Orbit

Inclination

98.7

Latest

Satellite identification and parameters

Extended collection of information and parameters for FENGYUN 1C DEB.

Object identification

Identified? True

Debris? True

Object name: FENGYUN 1C DEB

International designator: 1999-025BXM

Object number (NORAD): 31522

Object ID (CCSDS): 31522

Country: PEOPLES REPUBLIC OF CHINA (PRC)

Current information (Y/N): Y

RCS size: SMALL

Orbital parameters

Period: 102.588 minutes

Inclination: 98.7181 deg

SMA: 7259.261 km

Apoapsis: 911.295 km

Periapsis: 850.958 km

RAAN: 212.275 deg

Eccentricy: 0.0041559

Argument of periapsis: 288.4396 deg

Mean anomaly: 71.2256 deg

Mean motion: 14.0366704 rev/day

Mean motion (dot): 0.00000323 rev/day2

B* drag term: 0.00023047 1/REarth

Two-line elements (TLE)

Creation date: July 6, 2025, 6:05 p.m.

Reference frame: TEME

Reference center: EARTH

Epoch: July 6, 2025, 12:35 p.m. UTC

TLE line 0: 0 FENGYUN 1C DEB

TLE line 1: 1 31522U 99025BXM 25187.52448001 .00000323 00000-0 23047-3 0 9992

TLE line 2: 2 31522 98.7181 212.2750 0041559 288.4396 71.2256 14.03667040927622

Live tracking on map

Real-time ground track for satellite FENGYUN 1C DEB.

In-orbit conjunctions

A list of the most updated potential collisions computed for object FENGYUN 1C DEB.

Target Orbit TCA Probability of collision Miss distance Type
SCOUT X-4 R/B SSO 2025-05-13 01:36:57 0.000170317 750.0 (m) ROCKET BODY
SL-14 DEB LEO 2024-09-19 08:21:04 0.0003741962 64.0 (m) DEBRIS

Associated space launch

Chinese polar orbiting meteorological satellite

FENGYUN 1C DEB was lifted into orbit during the mission ‘Long March 4B | Feng Yun 1C’, on board a Long March 4B space rocket.

The launch took place on May 10, 1999, 1:33 a.m. from Launch Complex 7.

For more information about the launch, click the button.

Launch to space Long March 4B | Feng Yun 1C
Long March 4B | Feng Yun 1C

Agency: N/A

Status: Launch Successful

Launch date: May 10, 1999, 1:33 a.m. UTC

Rocket: Long March 4B

Launch pad: Launch Complex 7

Location: Taiyuan Satellite Launch Center, People's Republic of China

...

Latest news about this satellite

There are no fresh news available about this satellite. Check back as we update our databases every day.


Newsletter sign-up

Weekly statistics, charts and insights to help you stay on top of the space industry.